Change the Weather History Date:

Thursday, August 29, 2013

  Actual Average Record
Temperature  
Mean Temperature 80 °F -  
Max Temperature 91 °F 86 °F 99 °F (1948)
Min Temperature 68 °F 53 °F 35 °F (1964)
Cooling Degree Days 14    
Growing Degree Days 30 (Base 50)    
Moisture  
Dew Point 51 °F    
Average Humidity 40    
Maximum Humidity 56    
Minimum Humidity 23    
Precipitation  
Precipitation 0.00 in - - ()
Sea Level Pressure  
Sea Level Pressure 29.96 in    
Wind  
Wind Speed 6 mph (South)    
Max Wind Speed 9 mph    
Max Gust Speed -    
Visibility 10 miles    
Events      
Averages and records for this station are not official NWS values.
T = Trace of Precipitation, MM = Missing Value Source: NWS Daily Summary

Daily Weather History Graph

Daily Weather History Graph

Search for Another Location

Airport or City:

Trip Planner

Search our weather history database for the weather conditions in past years. The results will help you decide how hot, cold, wet, or windy it might be!

Date:

Astronomy

Aug. 29, 2013 Rise Set
Actual Time 6:51 AM MDT 8:05 PM MDT
Civil Twilight 6:23 AM MDT 8:33 PM MDT
Nautical Twilight 5:49 AM MDT 9:07 PM MDT
Astronomical Twilight 5:13 AM MDT 9:43 PM MDT
Moon 12:44 AM MDT (8/29) 3:38 PM MDT (8/29)
Length of Visible Light 14h 10m
Length of Day
13h 13m
Last Quarter, 37% of the Moon is Illuminated
Aug 29
Last Quarter
Sep 5
New
Sep 12
First Quarter
Sep 19
Full
Sep 26
Last Quarter

Hourly Weather History & Observations

Time (MDT) Temp. Heat Index Dew Point Humidity Pressure Visibility Wind Dir Wind Speed Gust Speed Precip Events Conditions
12:53 AM 73.0 °F - 52.0 °F 48% 29.93 in 10.0 mi South 6.9 mph - N/A   Partly Cloudy
1:53 AM 71.1 °F - 52.0 °F 51% 29.95 in 10.0 mi NNE 3.5 mph - N/A   Clear
2:53 AM 71.1 °F - 52.0 °F 51% 29.94 in 10.0 mi SSE 5.8 mph - N/A   Clear
3:53 AM 69.1 °F - 52.0 °F 54% 29.94 in 10.0 mi South 5.8 mph - N/A   Mostly Cloudy
4:53 AM 69.1 °F - 52.0 °F 54% 29.94 in 10.0 mi South 6.9 mph - N/A   Clear
5:53 AM 68.0 °F - 52.0 °F 56% 29.94 in 10.0 mi South 5.8 mph - N/A   Clear
6:53 AM 69.1 °F - 51.1 °F 53% 29.96 in 10.0 mi South 9.2 mph - N/A   Clear
7:53 AM 69.1 °F - 51.1 °F 53% 30.00 in 10.0 mi SSE 8.1 mph - N/A   Clear
8:53 AM 73.0 °F - 52.0 °F 48% 30.01 in 10.0 mi SSE 5.8 mph - N/A   Clear
9:53 AM 78.1 °F - 52.0 °F 40% 30.02 in 10.0 mi South 6.9 mph - N/A   Clear
10:53 AM 81.0 °F 80.4 °F 53.1 °F 38% 30.01 in 10.0 mi SSE 4.6 mph - N/A   Clear
11:53 AM 84.0 °F - 51.1 °F 32% 30.01 in 10.0 mi SW 8.1 mph - N/A   Clear
12:53 PM 86.0 °F - 50.0 °F 29% 30.00 in 10.0 mi Calm Calm - N/A   Clear
1:53 PM 89.1 °F - 51.1 °F 27% 29.98 in 10.0 mi NW 5.8 mph - N/A   Clear
2:53 PM 90.0 °F - 50.0 °F 25% 29.96 in 10.0 mi Variable 4.6 mph - N/A   Clear
3:53 PM 91.0 °F - 48.9 °F 23% 29.95 in 10.0 mi Variable 5.8 mph - N/A   Clear
4:53 PM 90.0 °F - 48.0 °F 24% 29.95 in 10.0 mi Variable 4.6 mph - N/A   Clear
5:53 PM 90.0 °F - 48.0 °F 24% 29.94 in 10.0 mi NW 6.9 mph - N/A   Clear
6:53 PM 89.1 °F - 48.0 °F 24% 29.93 in 10.0 mi NW 3.5 mph - N/A   Clear
7:53 PM 86.0 °F - 50.0 °F 29% 29.93 in 10.0 mi Calm Calm - N/A   Clear
8:53 PM 80.1 °F - 52.0 °F 38% 29.94 in 10.0 mi Calm Calm - N/A   Clear
9:53 PM 77.0 °F - 53.1 °F 43% 29.95 in 10.0 mi South 5.8 mph - N/A   Clear
10:53 PM 75.9 °F - 51.1 °F 42% 29.95 in 10.0 mi South 6.9 mph - N/A   Clear
11:53 PM 73.9 °F - 50.0 °F 43% 29.95 in 10.0 mi South 9.2 mph - N/A   Clear